FENGYUN 2H (43491 NORAD) Tracking and Keplerian Element Data

This shows tracking and keplerian element data for the satellite.

Feedback or suggestion? Click here.




ElementValue
Catalog43491
NameFENGYUN 2H
Epoch Orbit52
Epoch Day198.93276416
Epoch Year2018
RAAN285.9028
Inclination2.2594
Eccentricity0.0002984
Argument of Perigee229.9815
Mean Anonmoly209.396
Mean Motion1.00265215
Decay Rate-2.78E-06
L11 43491U 18050A 18198.93276416 -.00000278 00000-0 00000-0 0 9998
L22 43491 2.2594 285.9028 0002984 229.9815 209.3960 1.00265215 526

Live tracking and technical data element details for FENGYUN 2H (NORAD 43491). FENGYUN 2H can be tracked NOW for your location showing map with azimuth and elevation plus other details from your city location.

Track the satellite on the map from your city or location and see movement details for azimuth, elevation, latitude, longitude, range, height, and movement on the map or in text.







IsCatalogInMostPopularTable: catalog: 43491, numindb: 8
Update: records affected: 1



GetName: 43491 FENGYUN 2H

Hit Count: updated at: Fri, 20 Jul 2018 20:37:33 GMT